Location: Buffign�court
(47.8126°N, 6.0176°E)
Time: 02:45:24
(UTC+00:00)

Cosmos 1844 - Pass Details

Date: 16 June 2021
Orbit: 823 x 867 km, 70.9° (Epoch: 04 August)

Event Time Altitude Azimuth Distance (km) Brightness Sun altitude
Rises 21:18:42 0° 331° (NNW) 3,370 8.9 -12.3°
Reaches altitude 10° 21:21:08 10° 332° (NNW) 2,435 7.6 -12.6°
Maximum altitude 21:26:43 87° 243° (WSW) 836 3.7 -13.0°
Enters shadow 21:30:50 19° 156° (SSE) 1,880 4.9 -13.4°
